sat.trackr.live / text

‹ back to catalog

STARLINK-1595

NORAD 46159 · 2020-057AU

PAYLOAD ACTIVE UNKNOWN

§ Identity

Operator
Country
US
Launch date
2020-08-18
Launch site
AFETR
Launch vehicle
Mass (kg)
RCS (m²)

Purposes: comms

External: N2YO · Heavens-Above · Gunter

§ Orbital elements

Epoch: 2026-05-24T16:37:16.922208Z

Period
91.76 min
Inclination
53.0430°
Eccentricity
0.0001949
Mean motion
15.69281114 rev/d
Perigee alt
359.6 km
Apogee alt
362.3 km
Semi-major
6,739.1 km
B*
6.8912e-4
RAAN
286.7843°
Arg perigee
356.5122°
Mean anomaly
3.5880°
Rev number
31,946

§ Raw data

STARLINK-15951 46159U 20057AU  26144.69255697  .00082261  00000+0  68912-3 0  99922 46159  53.0430 286.7843 0001949 356.5122   3.5880 15.69281114319462

JSON: /api/v1/satellites/46159 · /tle

For live sub-satellite position, see the globe view (requires WebGL).

§ Visibility from observer

Set your observer location to see the next 7 days of passes ≥ 10°. The values pass through the URL so the page stays shareable.

No JS? Fill the form by hand. The geolocation button needs JavaScript.